Coeur d'Alene, ID

9:42 AM PDT on August 20, 2017 (GMT -0700)
Coeur D'Alene

Weather History for KCOE - June, 2013

Change the Weather History Date:

Wednesday, June 12, 2013

  Actual Average Record
Temperature  
Mean Temperature 57 °F -  
Max Temperature 66 °F 69 °F 80 °F (1999)
Min Temperature 48 °F 45 °F 42 °F (1999)
Degree Days  
Heating Degree Days 8    
Growing Degree Days 7 (Base 50)    
Moisture  
Dew Point 38 °F    
Average Humidity 50    
Maximum Humidity 71    
Minimum Humidity 35    
Precipitation  
Precipitation 0.00 in - - ()
Sea Level Pressure  
Sea Level Pressure 30.04 in    
Wind  
Wind Speed 6 mph (SW)    
Max Wind Speed 10 mph    
Max Gust Speed -    
Visibility 10 miles    
Events      
Averages and records for this station are not official NWS values.
T = Trace of Precipitation, MM = Missing Value Source: NWS Daily Summary

Daily Weather History Graph

Daily Weather History Graph

Search for Another Location

Airport or City:

Trip Planner

Search our weather history database for the weather conditions in past years. The results will help you decide how hot, cold, wet, or windy it might be!

Date:

Astronomy

Jun. 12, 2013 Rise Set
Actual Time 4:48 AM PDT 8:46 PM PDT
Civil Twilight 4:07 AM PDT 9:27 PM PDT
Nautical Twilight 3:11 AM PDT 10:23 PM PDT
Astronomical Twilight 1:41 AM PDT 11:53 PM PDT
Moon 8:45 AM PDT (6/12) 11:08 PM PDT (6/12)
Length of Visible Light 17h 19m
Length of Day
15h 57m
Waxing Crescent, 15% of the Moon is Illuminated
Jun 12
Waxing Crescent
Jun 16
First Quarter
Jun 23
Full
Jun 29
Last Quarter
Jul 8
New

Hourly Weather History & Observations

Time (PDT) Temp. Dew Point Humidity Pressure Visibility Wind Dir Wind Speed Gust Speed Precip Events Conditions
12:15 AM 53.6 °F 37.4 °F 54% 30.03 in 10.0 mi SSE 10.4 mph - N/A   Clear
12:35 AM 53.6 °F 37.4 °F 54% 30.03 in 10.0 mi South 10.4 mph - N/A   Clear
12:55 AM 53.6 °F 37.4 °F 54% 30.03 in 10.0 mi South 10.4 mph - N/A   Clear
1:15 AM 51.8 °F 35.6 °F 54% 30.04 in 10.0 mi South 9.2 mph - N/A   Clear
1:35 AM 51.8 °F 37.4 °F 58% 30.03 in 10.0 mi SSE 5.8 mph - N/A   Clear
1:55 AM 48.2 °F 35.6 °F 62% 30.04 in 10.0 mi SSW 8.1 mph - N/A   Clear
2:15 AM 48.2 °F 35.6 °F 62% 30.05 in 10.0 mi SSE 6.9 mph - N/A   Clear
2:35 AM 51.8 °F 35.6 °F 54% 30.06 in 10.0 mi South 9.2 mph - N/A   Clear
2:55 AM 51.8 °F 35.6 °F 54% 30.06 in 10.0 mi South 4.6 mph - N/A   Clear
3:15 AM 51.8 °F 35.6 °F 54% 30.06 in 10.0 mi Calm Calm - N/A   Clear
3:35 AM 50.0 °F 35.6 °F 58% 30.06 in 10.0 mi SSW 3.5 mph - N/A   Clear
3:55 AM 50.0 °F 35.6 °F 58% 30.05 in 10.0 mi South 5.8 mph - N/A   Clear
4:15 AM 50.0 °F 35.6 °F 58% 30.06 in 10.0 mi SSW 5.8 mph - N/A   Clear
4:35 AM 48.2 °F 35.6 °F 62% 30.06 in 10.0 mi SSW 4.6 mph - N/A   Clear
4:55 AM 48.2 °F 35.6 °F 62% 30.05 in 10.0 mi South 3.5 mph - N/A   Clear
5:15 AM 48.2 °F 35.6 °F 62% 30.06 in 10.0 mi South 4.6 mph - N/A   Clear
5:35 AM 48.2 °F 35.6 °F 62% 30.07 in 10.0 mi SSW 5.8 mph - N/A   Partly Cloudy
5:55 AM 48.2 °F 33.8 °F 58% 30.06 in 10.0 mi Calm Calm - N/A   Clear
6:15 AM 48.2 °F 35.6 °F 62% 30.06 in 10.0 mi West 3.5 mph - N/A   Clear
6:35 AM 48.2 °F 39.2 °F 71% 30.07 in 10.0 mi WSW 3.5 mph - N/A   Clear
6:55 AM 48.2 °F 39.2 °F 71% 30.07 in 10.0 mi SW 4.6 mph - N/A   Clear
7:15 AM 48.2 °F 37.4 °F 66% 30.07 in 10.0 mi South 4.6 mph - N/A   Clear
7:35 AM 48.2 °F 39.2 °F 71% 30.07 in 10.0 mi SW 5.8 mph - N/A   Clear
7:55 AM 51.8 °F 39.2 °F 62% 30.08 in 10.0 mi SW 5.8 mph - N/A   Clear
8:15 AM 53.6 °F 37.4 °F 54% 30.07 in 10.0 mi SSW 3.5 mph - N/A   Clear
8:35 AM 53.6 °F 37.4 °F 54% 30.07 in 10.0 mi West 5.8 mph - N/A   Clear
8:55 AM 53.6 °F 37.4 °F 54% 30.07 in 10.0 mi Calm Calm - N/A   Clear
9:15 AM 55.4 °F 37.4 °F 51% 30.07 in 10.0 mi SSW 3.5 mph - N/A   Partly Cloudy
9:35 AM 55.4 °F 39.2 °F 54% 30.07 in 10.0 mi South 5.8 mph - N/A   Clear
9:55 AM 57.2 °F 39.2 °F 51% 30.07 in 10.0 mi WSW 4.6 mph - N/A   Clear
10:15 AM 57.2 °F 39.2 °F 51% 30.07 in 10.0 mi SSW 4.6 mph - N/A   Clear
10:35 AM 59.0 °F 39.2 °F 48% 30.07 in 10.0 mi Calm Calm - N/A   Clear
10:55 AM 60.8 °F 39.2 °F 45% 30.07 in 10.0 mi West 5.8 mph - N/A   Clear
11:15 AM 60.8 °F 39.2 °F 45% 30.07 in 10.0 mi WSW 9.2 mph - N/A   Partly Cloudy
11:35 AM 62.6 °F 37.4 °F 39% 30.06 in 10.0 mi West 9.2 mph - N/A   Partly Cloudy
11:55 AM 62.6 °F 37.4 °F 39% 30.06 in 10.0 mi SSW 9.2 mph - N/A   Clear
12:15 PM 62.6 °F 37.4 °F 39% 30.06 in 10.0 mi Calm Calm - N/A   Partly Cloudy
12:35 PM 62.6 °F 39.2 °F 42% 30.06 in 10.0 mi SW 5.8 mph - N/A   Scattered Clouds
12:55 PM 62.6 °F 39.2 °F 42% 30.06 in 10.0 mi South 3.5 mph - N/A   Scattered Clouds
1:15 PM 64.4 °F 39.2 °F 40% 30.05 in 10.0 mi West 3.5 mph - N/A   Scattered Clouds
1:35 PM 62.6 °F 39.2 °F 42% 30.05 in 10.0 mi WNW 3.5 mph - N/A   Mostly Cloudy
1:55 PM 64.4 °F 39.2 °F 40% 30.05 in 10.0 mi SSW 9.2 mph - N/A   Mostly Cloudy
2:15 PM 66.2 °F 39.2 °F 37% 30.05 in 10.0 mi SSW 8.1 mph - N/A   Scattered Clouds
2:35 PM 64.4 °F 37.4 °F 37% 30.04 in 10.0 mi SW 5.8 mph - N/A   Scattered Clouds
2:55 PM 64.4 °F 37.4 °F 37% 30.04 in 10.0 mi South 5.8 mph - N/A   Mostly Cloudy
3:15 PM 64.4 °F 39.2 °F 40% 30.04 in 10.0 mi West 3.5 mph - N/A   Overcast
3:35 PM 64.4 °F 39.2 °F 40% 30.04 in 10.0 mi SSW 4.6 mph - N/A   Overcast
3:55 PM 66.2 °F 39.2 °F 37% 30.04 in 10.0 mi WSW 4.6 mph - N/A   Overcast
4:15 PM 64.4 °F 37.4 °F 37% 30.03 in 10.0 mi WSW 5.8 mph - N/A   Overcast
4:35 PM 64.4 °F 37.4 °F 37% 30.03 in 10.0 mi SW 8.1 mph - N/A   Overcast
4:55 PM 64.4 °F 39.2 °F 40% 30.03 in 10.0 mi West 6.9 mph - N/A   Scattered Clouds
5:15 PM 66.2 °F 37.4 °F 35% 30.03 in 10.0 mi SW 8.1 mph - N/A   Mostly Cloudy
5:35 PM 64.4 °F 39.2 °F 40% 30.02 in 10.0 mi West 9.2 mph - N/A   Scattered Clouds
5:55 PM 66.2 °F 39.2 °F 37% 30.02 in 10.0 mi WNW 9.2 mph - N/A   Clear
6:15 PM 66.2 °F 39.2 °F 37% 30.02 in 10.0 mi West 8.1 mph - N/A   Clear
6:35 PM 64.4 °F 37.4 °F 37% 30.01 in 10.0 mi West 6.9 mph - N/A   Clear
6:55 PM 64.4 °F 37.4 °F 37% 30.01 in 10.0 mi West 5.8 mph - N/A   Clear
7:15 PM 64.4 °F 37.4 °F 37% 30.01 in 10.0 mi Calm Calm - N/A   Clear
7:35 PM 64.4 °F 39.2 °F 40% 30.00 in 10.0 mi WNW 4.6 mph - N/A   Clear
7:55 PM 62.6 °F 37.4 °F 39% 30.00 in 10.0 mi WNW 3.5 mph - N/A   Clear
8:15 PM 62.6 °F 37.4 °F 39% 29.99 in 10.0 mi WNW 3.5 mph - N/A   Clear
8:35 PM 60.8 °F 37.4 °F 42% 29.99 in 10.0 mi Calm Calm - N/A   Clear
8:55 PM 55.4 °F 39.2 °F 54% 29.99 in 10.0 mi Calm Calm - N/A   Clear
9:15 PM 53.6 °F 35.6 °F 51% 30.00 in 10.0 mi SW 4.6 mph - N/A   Clear
9:35 PM 53.6 °F 37.4 °F 54% 30.01 in 10.0 mi Calm Calm - N/A   Clear
9:55 PM 53.6 °F 37.4 °F 54% 30.02 in 10.0 mi SSE 4.6 mph - N/A   Clear
10:15 PM 55.4 °F 41.0 °F 58% 30.02 in 10.0 mi Calm Calm - N/A   Clear
10:35 PM 51.8 °F 35.6 °F 54% 30.02 in 10.0 mi Calm Calm - N/A   Clear
10:55 PM 50.0 °F 37.4 °F 62% 30.01 in 10.0 mi NNE 3.5 mph - N/A   Clear
11:15 PM 50.0 °F 37.4 °F 62% 30.02 in 10.0 mi Calm Calm - N/A   Clear
11:35 PM 51.8 °F 42.8 °F 71% 30.02 in 10.0 mi SE 3.5 mph - N/A   Clear
11:55 PM 53.6 °F 42.8 °F 67% 30.03 in 10.0 mi SSE 6.9 mph - N/A   Clear